Wind_Speed
17 18 19 20 21 23 24 24 25 24 24 23 25 26 26 25 26 27 29 30 31 32 33 34 34 33 33 33 32 32 32 33 33 33 33 33 32 32 32 32 32 32 32 33
17 18 20 21 21 21 21 22 22 23 22 22 24 25 25 26 26 27 28 28 28 29 29 29 29 29 29 29 29 30 30 30 30 30 30 29 29 29 29 30 30 31 31 32
18 19 20 19 19 21 21 21 22 21 20 23 24 24 24 25 26 26 27 27 27 26 26 26 26 26 26 26 27 27 27 27 27 27 27 27 27 27 27 28 28 29 30 29
20 20 20 18 20 21 21 21 22 20 21 23 23 23 23 24 24 24 25 25 25 25 24 24 24 25 25 25 25 25 25 25 25 24 25 25 25 25 25 25 26 27 27 28
20 20 19 18 19 20 20 20 21 20 21 21 21 21 21 22 22 23 23 23 24 23 23 23 23 23 23 23 23 23 23 23 23 22 22 23 23 24 24 25 25 26 26 27
21 20 19 18 18 18 18 18 19 19 19 20 20 19 19 20 21 22 22 22 23 23 23 23 22 22 22 22 22 22 21 21 21 21 21 22 22 23 23 24 24 25 26 27
21 21 19 18 18 18 18 17 18 19 19 19 19 19 19 20 20 21 21 21 22 22 22 22 22 22 21 21 21 20 20 20 20 20 21 21 22 22 22 23 24 26 27 28
21 21 18 18 18 18 17 17 18 18 18 19 19 19 19 20 20 20 21 21 21 22 22 22 22 22 21 21 21 20 20 20 20 20 20 20 21 22 23 24 25 27 28 29
20 20 19 20 19 18 18 18 18 18 18 18 18 18 19 20 20 20 20 21 21 21 21 22 22 21 21 21 20 20 20 20 20 20 21 21 22 23 24 25 27 28 29 30
20 20 21 21 20 20 20 19 19 18 18 18 18 18 19 19 19 20 20 21 21 21 21 21 22 22 22 21 21 20 20 20 21 21 21 22 23 24 26 27 28 29 30 31
21 21 21 21 21 21 21 21 20 20 20 19 19 19 19 20 20 20 21 22 22 22 22 22 23 23 22 22 21 21 21 21 21 22 23 24 25 26 27 28 29 30 31 32
23 23 22 22 22 22 22 22 22 22 22 21 21 21 21 21 21 21 22 22 22 23 23 23 24 24 23 23 23 23 23 23 24 24 25 26 27 28 29 30 31 32 33 33
26 25 25 24 24 24 24 24 24 24 24 23 23 23 23 23 23 23 23 23 23 23 24 24 24 25 25 25 25 25 25 26 26 26 27 28 29 30 30 31 32 33 34 34
28 27 27 26 26 26 26 25 25 26 26 26 26 26 26 26 26 26 26 26 26 25 26 26 26 26 27 27 27 27 27 27 28 28 29 30 30 31 32 32 33 34 34 35
28 28 27 27 27 27 27 27 27 27 27 27 27 27 27 27 27 27 27 28 28 28 28 28 29 29 29 29 29 29 29 30 30 31 31 31 32 33 33 34 34 35 35 35
27 27 27 26 26 26 27 27 27 27 27 28 28 28 28 28 28 28 29 29 29 29 29 30 30 31 31 31 31 31 32 32 32 33 33 34 34 34 34 34 35 36 36 36
24 24 25 26 25 25 26 26 27 27 28 28 28 29 29 30 30 30 30 30 30 30 30 31 31 32 32 33 33 33 33 33 34 34 34 35 35 35 35 35 36 36 37 37
20 21 22 22 23 24 24 25 26 27 27 28 29 29 30 30 30 31 30 30 30 31 31 32 32 32 33 33 34 34 34 34 34 35 35 35 35 35 36 36 37 37 37 38
18 20 20 21 22 23 23 24 25 26 26 27 27 28 28 29 29 30 30 31 31 31 31 32 32 32 32 33 33 33 34 34 34 34 35 35 35 36 36 36 37 37 38 39
15 17 18 20 21 21 22 23 23 24 25 25 26 27 27 27 28 28 29 29 30 31 31 31 32 32 32 32 32 33 33 33 33 34 34 35 35 36 36 36 37 38 39 39
14 15 16 17 18 19 20 21 21 22 23 24 24 25 26 26 27 27 28 29 29 30 30 30 30 31 32 32 32 32 33 33 33 33 33 34 34 35 36 36 37 37 38 38
13 14 15 16 17 17 18 19 20 20 21 22 22 23 24 25 25 26 26 27 28 28 29 29 30 30 31 31 31 31 31 31 31 32 33 33 33 34 35 35 35 36 36 37
15 15 15 15 15 16 17 18 18 19 19 19 20 20 22 22 23 24 25 26 26 27 27 28 29 29 30 30 30 30 30 30 31 31 31 32 33 33 34 34 34 35 36 37
16 16 16 16 16 17 17 17 18 18 19 19 19 20 20 21 22 23 24 25 25 26 27 28 28 28 28 29 29 30 30 30 30 30 31 31 32 32 33 33 34 35 36 37
18 19 19 18 18 17 17 18 18 19 19 20 20 20 20 21 22 22 23 24 24 25 26 27 27 27 27 28 28 29 30 30 30 30 31 31 32 32 33 34 35 35 36 37
22 21 21 21 20 20 21 21 21 21 20 20 20 20 21 21 22 22 22 23 24 25 26 26 26 27 27 28 28 28 29 29 30 30 31 32 32 32 33 33 34 35 36 38
25 25 24 24 24 24 24 24 24 24 23 23 23 23 23 24 24 24 24 25 25 25 25 26 26 27 28 28 28 28 29 29 30 30 30 31 31 32 33 34 35 36 38 39
Wind_Direction
230 233 233 233 236 239 242 245 247 245 244 239 237 238 240 241 241 241 240 241 242 244 246 248 250 252 254 256 258 261 263 265 267 269 270 272 273 275 277 279 281 283 285 287
234 235 236 237 240 244 245 245 246 245 244 243 240 239 239 239 240 241 242 242 243 244 245 247 249 251 254 256 259 261 263 265 267 269 270 271 274 276 279 281 283 284 287 290
239 241 242 241 242 245 245 245 244 242 239 239 238 237 236 236 237 239 240 242 243 244 246 247 249 251 254 256 259 261 263 265 267 268 269 271 274 278 281 283 284 286 289 291
241 244 247 246 244 246 246 245 245 242 239 241 241 239 237 237 237 238 239 241 243 244 245 247 249 252 254 256 258 260 262 265 267 268 269 271 275 279 282 285 287 289 291 293
245 247 248 248 248 246 246 245 245 243 241 242 241 239 237 236 237 237 239 240 242 243 245 247 250 252 254 255 258 260 262 264 265 267 269 272 276 279 283 285 287 290 292 294
245 247 246 246 247 247 247 244 243 241 240 239 238 238 237 237 237 237 239 240 241 243 246 248 249 251 252 255 257 259 260 262 264 266 269 273 277 280 283 285 287 290 293 295
244 245 243 243 243 244 244 241 238 237 237 236 236 236 237 238 238 238 240 242 242 243 245 247 248 250 252 254 256 257 259 261 264 268 271 275 278 280 283 285 288 291 293 296
243 242 239 238 238 239 240 237 235 235 236 236 237 238 238 238 239 241 242 242 243 244 245 246 247 249 251 254 255 257 259 262 266 270 273 277 279 281 283 286 289 292 294 296
241 240 238 237 237 237 237 237 236 236 236 236 238 239 238 239 241 243 243 243 243 244 245 246 247 250 252 255 256 257 260 264 267 270 274 277 280 283 285 287 290 292 294 297
242 240 238 238 238 237 236 236 235 236 235 235 237 239 239 240 243 244 243 244 244 245 246 247 248 251 253 255 256 258 262 265 267 270 274 277 280 283 286 288 291 293 294 296
241 240 240 239 238 237 237 235 235 236 236 237 239 240 241 242 244 246 246 245 245 246 248 249 251 253 254 255 257 259 262 265 268 271 274 277 280 284 287 288 290 293 294 295
239 239 240 239 239 239 238 238 238 238 238 240 241 242 243 244 246 248 249 248 247 248 250 252 252 253 254 257 259 261 263 266 269 273 276 278 282 284 287 289 291 293 294 295
240 240 241 242 243 243 242 242 243 243 243 245 245 245 246 247 249 250 251 251 252 252 253 253 255 255 255 257 260 263 266 268 271 273 276 279 282 284 287 289 291 293 295 296
243 241 242 243 243 244 245 245 246 247 247 248 248 249 249 250 251 252 253 254 254 254 254 255 256 257 257 259 261 264 267 270 272 275 278 280 283 285 287 289 291 293 294 296
244 242 242 242 243 243 245 246 247 248 249 249 250 250 251 252 252 253 254 255 255 255 256 257 258 259 260 260 262 265 268 271 273 276 278 281 283 285 287 288 290 292 294 296
242 242 241 242 243 245 246 247 248 249 251 252 252 252 253 253 254 254 255 256 256 257 258 258 259 260 261 262 264 267 269 271 274 276 278 280 282 284 286 288 290 292 294 296
240 240 240 241 243 247 249 249 251 253 254 255 255 255 255 255 255 256 256 257 258 259 259 260 261 262 263 265 266 268 270 272 274 277 279 280 282 283 285 288 290 292 293 295
237 240 241 242 245 249 251 252 253 255 256 257 257 257 256 256 256 256 257 258 259 259 260 261 263 264 265 266 267 268 269 271 273 275 277 279 280 282 285 287 289 291 293 295
242 242 243 245 249 253 254 254 255 257 258 259 259 258 258 258 257 257 258 258 259 260 261 262 263 264 266 267 268 269 270 272 273 274 276 278 280 282 285 287 289 291 293 295
248 247 248 249 251 253 255 256 257 259 260 261 260 259 259 259 259 259 259 260 260 260 261 263 264 265 265 266 268 269 271 272 274 275 276 278 280 282 284 286 289 292 294 296
252 253 252 252 253 255 257 258 260 262 263 263 262 260 259 259 260 260 261 262 261 262 262 263 265 266 266 267 268 270 272 273 274 275 276 278 280 282 284 287 289 292 294 297
253 254 255 256 258 259 261 261 262 263 265 265 264 262 261 260 261 262 263 263 263 263 263 264 265 266 267 268 269 271 272 274 275 276 277 278 280 282 285 287 290 293 295 297
254 256 257 259 261 263 265 265 265 266 268 269 268 266 264 263 263 264 264 265 265 265 264 265 266 266 267 268 269 270 272 274 275 277 278 279 281 283 285 287 291 294 296 297
256 256 258 260 262 265 266 267 268 270 271 271 271 270 269 268 268 268 267 267 267 267 267 268 268 268 268 267 268 270 272 274 276 277 279 281 282 284 286 289 292 294 296 298
258 257 259 261 263 264 267 269 270 272 274 274 273 272 272 271 271 271 272 272 271 270 271 271 270 270 269 269 270 271 273 274 276 278 280 282 284 285 287 290 293 295 297 299
259 260 260 261 263 265 268 271 273 275 275 275 275 275 274 275 275 276 275 275 274 274 274 273 272 271 270 270 271 273 274 275 277 279 280 282 285 287 289 291 293 295 298 300
260 261 262 263 265 267 269 271 272 273 274 275 276 276 277 277 278 277 277 277 276 276 276 275 274 273 273 272 273 274 275 277 278 280 282 283 286 288 291 293 295 297 299 301
Height
5645 5647 5648 5649 5651 5652 5654 5656 5657 5660 5661 5665 5666 5668 5671 5673 5675 5677 5680 5682 5685 5687 5690 5692 5694 5696 5697 5699 5700 5700 5701 5701 5701 5701 5700 5700 5699 5697 5696 5694 5693 5691 5688 5686
5641 5642 5643 5644 5646 5647 5649 5650 5652 5653 5656 5658 5660 5662 5664 5667 5669 5671 5673 5675 5678 5680 5682 5684 5686 5687 5689 5690 5691 5692 5692 5692 5692 5692 5691 5691 5690 5689 5688 5686 5684 5682 5680 5677
5637 5637 5638 5640 5642 5642 5644 5645 5646 5648 5652 5651 5653 5655 5658 5660 5662 5664 5666 5668 5671 5673 5675 5677 5678 5680 5681 5682 5683 5684 5684 5684 5684 5684 5683 5683 5682 5681 5680 5678 5676 5674 5672 5669
5631 5633 5633 5638 5636 5637 5638 5640 5641 5643 5644 5645 5647 5649 5651 5654 5656 5658 5660 5662 5664 5666 5668 5670 5672 5673 5674 5675 5676 5676 5677 5677 5676 5676 5676 5675 5675 5673 5672 5670 5669 5666 5664 5661
5626 5627 5629 5631 5631 5631 5633 5635 5636 5637 5639 5640 5641 5644 5646 5648 5650 5652 5654 5656 5658 5660 5662 5664 5665 5666 5667 5668 5669 5669 5669 5669 5669 5669 5669 5668 5667 5666 5665 5663 5661 5659 5657 5654
5621 5621 5624 5627 5626 5626 5629 5630 5631 5632 5633 5635 5636 5639 5642 5642 5644 5646 5648 5650 5652 5654 5656 5657 5659 5660 5661 5661 5662 5662 5663 5663 5663 5662 5662 5661 5660 5659 5658 5656 5654 5652 5650 5647
5615 5615 5618 5621 5620 5622 5624 5626 5626 5627 5628 5630 5632 5634 5636 5637 5639 5641 5643 5644 5646 5648 5649 5651 5652 5653 5654 5655 5655 5656 5656 5656 5656 5656 5655 5655 5654 5653 5651 5650 5648 5646 5643 5640
5608 5610 5615 5615 5615 5617 5619 5620 5620 5622 5623 5625 5627 5628 5630 5632 5634 5635 5637 5639 5640 5642 5643 5645 5646 5647 5648 5649 5649 5650 5650 5650 5650 5649 5649 5648 5647 5646 5645 5643 5641 5639 5636 5633
5604 5607 5608 5609 5610 5611 5613 5615 5616 5617 5619 5620 5622 5623 5625 5627 5628 5630 5631 5633 5634 5636 5637 5639 5640 5641 5642 5642 5643 5643 5643 5644 5643 5643 5643 5642 5641 5639 5638 5636 5634 5631 5629 5625
5598 5600 5601 5603 5604 5606 5608 5609 5611 5612 5614 5615 5617 5618 5620 5621 5623 5624 5626 5627 5629 5630 5631 5632 5634 5635 5635 5636 5637 5637 5637 5637 5637 5637 5636 5635 5634 5632 5631 5629 5626 5624 5621 5618
5592 5594 5595 5597 5598 5600 5602 5604 5605 5607 5609 5610 5612 5613 5615 5616 5617 5619 5620 5621 5623 5624 5625 5626 5627 5628 5629 5630 5630 5630 5630 5630 5630 5630 5629 5628 5627 5625 5623 5621 5618 5616 5613 5609
5586 5588 5589 5591 5593 5594 5596 5598 5600 5601 5603 5605 5606 5608 5609 5610 5612 5613 5614 5615 5616 5618 5619 5620 5621 5621 5622 5623 5623 5623 5624 5623 5623 5622 5621 5620 5619 5617 5615 5613 5610 5607 5604 5601
5579 5580 5582 5584 5586 5588 5590 5591 5593 5595 5597 5598 5600 5601 5603 5604 5605 5606 5608 5609 5610 5611 5612 5613 5614 5614 5615 5616 5616 5616 5616 5616 5615 5614 5613 5612 5610 5609 5607 5604 5601 5599 5595 5592
5570 5573 5575 5577 5579 5581 5583 5585 5586 5588 5590 5591 5593 5594 5595 5597 5598 5599 5600 5602 5603 5604 5605 5605 5606 5607 5607 5608 5608 5608 5608 5608 5607 5606 5605 5603 5602 5600 5598 5595 5593 5590 5587 5583
5562 5564 5567 5569 5571 5573 5575 5577 5579 5580 5582 5583 5585 5586 5588 5589 5590 5591 5593 5594 5595 5596 5597 5597 5598 5599 5599 5599 5600 5600 5599 5599 5598 5597 5596 5594 5593 5591 5588 5586 5583 5580 5577 5574
5553 5556 5559 5562 5564 5566 5568 5570 5571 5573 5574 5575 5577 5578 5580 5581 5582 5583 5584 5585 5586 5587 5588 5589 5589 5590 5590 5591 5591 5591 5590 5590 5589 5588 5587 5585 5583 5581 5579 5577 5574 5571 5568 5565
5545 5548 5551 5554 5557 5558 5560 5562 5563 5565 5566 5567 5569 5570 5571 5572 5573 5575 5576 5577 5578 5578 5579 5580 5580 5581 5581 5581 5581 5581 5581 5580 5579 5578 5577 5575 5574 5572 5569 5567 5564 5561 5558 5555
5540 5542 5545 5547 5549 5551 5553 5554 5555 5557 5558 5559 5560 5561 5562 5563 5564 5566 5567 5568 5569 5569 5570 5570 5571 5571 5571 5571 5571 5571 5571 5570 5570 5568 5567 5565 5564 5562 5560 5557 5555 5552 5549 5545
5536 5537 5539 5541 5543 5544 5546 5547 5548 5549 5550 5551 5552 5552 5553 5554 5555 5556 5557 5558 5559 5560 5560 5561 5561 5561 5562 5562 5561 5561 5561 5560 5559 5558 5557 5555 5554 5552 5550 5547 5545 5542 5539 5535
5532 5533 5534 5535 5536 5538 5539 5540 5540 5541 5542 5543 5543 5544 5545 5546 5546 5547 5548 5549 5549 5550 5551 5551 5551 5552 5552 5552 5552 5551 5551 5550 5549 5548 5547 5545 5544 5542 5540 5537 5535 5532 5528 5525
5528 5528 5529 5530 5531 5532 5532 5533 5533 5534 5534 5535 5535 5536 5536 5537 5538 5538 5539 5540 5540 5540 5541 5541 5542 5542 5542 5542 5542 5541 5541 5540 5539 5538 5537 5535 5534 5532 5530 5527 5525 5521 5518 5514
5524 5524 5524 5525 5526 5526 5526 5527 5527 5527 5528 5527 5527 5527 5528 5529 5529 5530 5530 5531 5531 5531 5532 5532 5532 5532 5532 5532 5532 5532 5531 5530 5529 5528 5527 5525 5523 5522 5519 5517 5514 5511 5508 5504
5519 5519 5520 5520 5520 5521 5521 5521 5521 5521 5521 5521 5520 5520 5521 5521 5521 5522 5522 5522 5522 5522 5522 5522 5522 5522 5522 5522 5522 5522 5521 5521 5520 5518 5517 5515 5514 5512 5510 5507 5504 5501 5498 5494
5514 5514 5515 5515 5515 5515 5515 5515 5515 5515 5514 5514 5514 5514 5514 5514 5514 5514 5514 5513 5513 5513 5513 5513 5513 5513 5513 5513 5512 5512 5512 5511 5510 5509 5507 5506 5504 5502 5500 5497 5495 5491 5488 5484
5508 5509 5509 5509 5509 5509 5509 5509 5509 5509 5508 5508 5507 5507 5507 5506 5506 5506 5506 5505 5505 5505 5505 5504 5504 5504 5504 5503 5503 5503 5502 5501 5500 5499 5498 5496 5494 5492 5490 5487 5485 5481 5478 5474
5501 5502 5502 5503 5503 5503 5503 5503 5502 5502 5502 5501 5501 5500 5500 5499 5499 5498 5498 5497 5497 5496 5496 5496 5495 5495 5494 5494 5494 5493 5493 5492 5491 5490 5488 5486 5485 5482 5480 5477 5474 5471 5468 5463
5494 5494 5495 5495 5495 5495 5495 5495 5495 5495 5494 5494 5493 5493 5492 5492 5491 5490 5490 5489 5488 5488 5487 5487 5486 5486 5485 5485 5485 5484 5483 5482 5481 5480 5478 5477 5475 5473 5470 5468 5465 5461 5457 5453